When you browse on this site, cookies collect data to enhance your experience and personalize the content and advertising you see.
Visit our Privacy Policy to learn more. By continuing to use the site, you agree to this use of cookies and data.
  • In Spain
  • List of Countries
  • For 7 days
  • Water Temperature
  • Satellite Maps
  • Weather Map
  • Weather Widgets
  • user-avatar
    Login

    Hourly Weather Bashino

    Today, 23 March, Saturday

    Time Temperature Precipitation Wind Pressure Humidity
    00:00 -4°C° 0.1 mm 6 mps 738 mmHg 87%
    01:00 -4°C° 0.1 mm 6 mps 738 mmHg 88%
    02:00 -4°C° 0.1 mm 6 mps 738 mmHg 88%
    03:00 -3°C° 0 mm 4 mps 739 mmHg 91%
    04:00 -2°C° 0.1 mm 5 mps 739 mmHg 92%
    05:00 -2°C° 0.1 mm 5 mps 740 mmHg 93%
    06:00 -2°C° 0.1 mm 5 mps 741 mmHg 93%
    07:00 -2°C° 0.1 mm 5 mps 742 mmHg 93%
    08:00 -2°C° 0.1 mm 5 mps 742 mmHg 92%
    09:00 -2°C° 0 mm 5 mps 744 mmHg 91%
    10:00 -2°C° 0.1 mm 5 mps 744 mmHg 92%
    11:00 -2°C° 0.1 mm 5 mps 744 mmHg 93%
    12:00 -1°C° 0.1 mm 5 mps 745 mmHg 94%
    13:00 -1°C° 0 mm 5 mps 745 mmHg 94%
    14:00 -1°C° 0 mm 4 mps 745 mmHg 94%
    15:00 -1°C° 0 mm 4 mps 745 mmHg 94%
    16:00 -1°C° 0 mm 4 mps 745 mmHg 92%
    17:00 -1°C° 0 mm 4 mps 745 mmHg 90%
    18:00 0°C° 0 mm 3 mps 746 mmHg 89%
    19:00 -1°C° 0 mm 3 mps 746 mmHg 90%
    20:00 -1°C° 0 mm 2 mps 746 mmHg 91%
    21:00 -1°C° 0 mm 2 mps 746 mmHg 92%
    22:00 0°C° 0 mm 1 mps 746 mmHg 91%
    23:00 0°C° 0 mm 1 mps 745 mmHg 90%

    Tomorrow, 24 March, Sunday

    Time Temperature Precipitation Wind Pressure Humidity
    00:00 0°C° 0 mm 1 mps 745 mmHg 89%
    01:00 0°C° 0 mm 1 mps 745 mmHg 88%
    02:00 0°C° 0 mm 1 mps 744 mmHg 87%
    03:00 0°C° 0 mm 1 mps 744 mmHg 86%
    04:00 -1°C° 0 mm 1 mps 743 mmHg 87%
    05:00 -4°C° 0 mm 2 mps 743 mmHg 87%
    06:00 -4°C° 0 mm 2 mps 742 mmHg 88%
    07:00 -4°C° 0 mm 3 mps 742 mmHg 87%
    08:00 -4°C° 0 mm 3 mps 741 mmHg 86%
    09:00 -3°C° 0 mm 4 mps 741 mmHg 86%
    10:00 -3°C° 0.3 mm 4 mps 740 mmHg 89%
    11:00 -2°C° 0.3 mm 4 mps 739 mmHg 92%
    12:00 -2°C° 0.3 mm 5 mps 739 mmHg 95%
    13:00 -2°C° 0.3 mm 5 mps 738 mmHg 95%
    14:00 -2°C° 0.3 mm 5 mps 738 mmHg 95%
    15:00 -1°C° 0.3 mm 5 mps 737 mmHg 96%
    16:00 -1°C° 0.1 mm 4 mps 737 mmHg 96%
    17:00 -1°C° 0.1 mm 4 mps 736 mmHg 96%
    18:00 0°C° 0.1 mm 3 mps 736 mmHg 96%
    19:00 -1°C° 0.2 mm 4 mps 736 mmHg 94%
    20:00 -1°C° 0.2 mm 4 mps 736 mmHg 92%
    21:00 -1°C° 0.2 mm 4 mps 737 mmHg 91%
    22:00 -2°C° 0 mm 4 mps 737 mmHg 90%
    23:00 -3°C° 0 mm 4 mps 737 mmHg 89%

    Day after tomorrow, 25 March, Monday

    Time Temperature Precipitation Wind Pressure Humidity
    00:00 -4°C° 0 mm 4 mps 737 mmHg 89%
    01:00 -4°C° 0 mm 4 mps 737 mmHg 89%
    02:00 -5°C° 0 mm 4 mps 737 mmHg 89%
    03:00 -5°C° 0 mm 4 mps 737 mmHg 89%
    04:00 -5°C° 0 mm 4 mps 737 mmHg 90%
    05:00 -5°C° 0 mm 4 mps 737 mmHg 90%
    06:00 -7°C° 0 mm 4 mps 737 mmHg 90%
    07:00 -5°C° 0 mm 4 mps 737 mmHg 87%
    08:00 -4°C° 0 mm 4 mps 738 mmHg 84%
    09:00 -3°C° 0 mm 4 mps 738 mmHg 81%
    10:00 -2°C° 0 mm 4 mps 738 mmHg 82%
    11:00 -1°C° 0 mm 4 mps 738 mmHg 82%
    12:00 0°C° 0 mm 4 mps 738 mmHg 83%
    13:00 0°C° 0 mm 4 mps 738 mmHg 80%
    14:00 0°C° 0 mm 4 mps 738 mmHg 78%
    15:00 +1°C° 0 mm 4 mps 738 mmHg 76%
    16:00 0°C° 0 mm 4 mps 738 mmHg 78%
    17:00 +1°C° 0 mm 3 mps 738 mmHg 79%
    18:00 0°C° 0 mm 3 mps 738 mmHg 80%
    19:00 0°C° 0 mm 3 mps 738 mmHg 81%
    20:00 -1°C° 0 mm 3 mps 738 mmHg 82%
    21:00 -2°C° 0 mm 3 mps 738 mmHg 83%
    22:00 -2°C° 0 mm 3 mps 738 mmHg 83%
    23:00 -2°C° 0 mm 3 mps 738 mmHg 83%

    26 March, Tuesday

    Time Temperature Precipitation Wind Pressure Humidity
    00:00 -2°C° 0 mm 3 mps 738 mmHg 84%
    01:00 -2°C° 0 mm 3 mps 738 mmHg 83%
    02:00 -2°C° 0 mm 3 mps 738 mmHg 83%
    03:00 -2°C° 0 mm 3 mps 738 mmHg 83%
    04:00 -2°C° 0 mm 3 mps 738 mmHg 83%
    05:00 -2°C° 0 mm 3 mps 737 mmHg 84%
    06:00 -4°C° 0 mm 3 mps 737 mmHg 84%
    07:00 -3°C° 0.1 mm 4 mps 737 mmHg 85%
    08:00 -2°C° 0.1 mm 4 mps 737 mmHg 85%
    09:00 -2°C° 0.1 mm 4 mps 737 mmHg 86%
    10:00 -1°C° 0 mm 4 mps 736 mmHg 87%
    11:00 0°C° 0 mm 4 mps 736 mmHg 88%
    12:00 0°C° 0 mm 4 mps 736 mmHg 88%
    13:00 +1°C° 0 mm 4 mps 735 mmHg 87%
    14:00 +1°C° 0 mm 4 mps 735 mmHg 86%
    15:00 +1°C° 0 mm 4 mps 735 mmHg 85%
    16:00 +1°C° 0 mm 3 mps 734 mmHg 88%
    17:00 +1°C° 0 mm 3 mps 734 mmHg 91%
    18:00 0°C° 0 mm 3 mps 733 mmHg 94%
    19:00 0°C° 0.6 mm 3 mps 733 mmHg 95%
    20:00 -1°C° 0.6 mm 4 mps 733 mmHg 95%
    21:00 -1°C° 0.6 mm 5 mps 732 mmHg 96%
    22:00 -1°C° 1.3 mm 5 mps 732 mmHg 96%
    23:00 -1°C° 1.3 mm 5 mps 731 mmHg 95%

    27 March, Wednesday

    Time Temperature Precipitation Wind Pressure Humidity
    00:00 -2°C° 1.3 mm 6 mps 730 mmHg 95%
    01:00 -1°C° 0.1 mm 5 mps 730 mmHg 95%
    02:00 -2°C° 0.1 mm 4 mps 730 mmHg 95%
    03:00 -1°C° 0.1 mm 3 mps 730 mmHg 95%
    04:00 -1°C° 0.1 mm 3 mps 730 mmHg 95%
    05:00 -1°C° 0.1 mm 2 mps 730 mmHg 95%
    06:00 -2°C° 0.1 mm 2 mps 730 mmHg 95%
    07:00 -2°C° 0.9 mm 2 mps 730 mmHg 95%
    08:00 -2°C° 0.9 mm 3 mps 731 mmHg 95%
    09:00 -1°C° 0.9 mm 3 mps 731 mmHg 95%
    10:00 -2°C° 1.1 mm 5 mps 732 mmHg 94%
    11:00 -3°C° 1.1 mm 6 mps 732 mmHg 94%
    12:00 -3°C° 1.1 mm 7 mps 733 mmHg 93%
    13:00 -2°C° 0.5 mm 8 mps 734 mmHg 92%
    14:00 -2°C° 0.5 mm 8 mps 735 mmHg 91%
    15:00 -2°C° 0.5 mm 8 mps 735 mmHg 90%
    16:00 -2°C° 0.1 mm 8 mps 736 mmHg 88%
    17:00 -2°C° 0.1 mm 8 mps 737 mmHg 86%
    18:00 -2°C° 0.1 mm 8 mps 738 mmHg 84%
    19:00 -4°C° 0 mm 8 mps 739 mmHg 84%
    20:00 -4°C° 0 mm 7 mps 740 mmHg 84%
    21:00 -6°C° 0 mm 7 mps 741 mmHg 85%
    22:00 -6°C° 0 mm 7 mps 741 mmHg 86%
    23:00 -5°C° 0 mm 6 mps 742 mmHg 87%

    28 March, Thursday

    Time Temperature Precipitation Wind Pressure Humidity
    00:00 -6°C° 0 mm 6 mps 742 mmHg 88%
    01:00 -6°C° 0 mm 6 mps 742 mmHg 88%
    02:00 -8°C° 0 mm 6 mps 743 mmHg 88%
    03:00 -8°C° 0 mm 5 mps 743 mmHg 88%
    04:00 -7°C° 0 mm 5 mps 743 mmHg 88%
    05:00 -7°C° 0 mm 5 mps 743 mmHg 88%
    06:00 -7°C° 0 mm 5 mps 743 mmHg 88%
    07:00 -6°C° 0.1 mm 5 mps 743 mmHg 88%
    08:00 -5°C° 0.1 mm 6 mps 743 mmHg 88%
    09:00 -5°C° 0.1 mm 6 mps 743 mmHg 88%
    10:00 -4°C° 0.1 mm 6 mps 743 mmHg 89%
    11:00 -3°C° 0.1 mm 6 mps 743 mmHg 91%
    12:00 -2°C° 0.1 mm 5 mps 743 mmHg 92%
    13:00 -1°C° 0.1 mm 5 mps 743 mmHg 92%
    14:00 -1°C° 0.1 mm 5 mps 743 mmHg 92%
    15:00 0°C° 0.1 mm 5 mps 743 mmHg 92%
    16:00 -1°C° 0 mm 5 mps 743 mmHg 90%
    17:00 -1°C° 0 mm 5 mps 742 mmHg 89%
    18:00 -1°C° 0 mm 5 mps 742 mmHg 88%
    19:00 -1°C° 0.1 mm 5 mps 742 mmHg 88%
    20:00 -2°C° 0.1 mm 6 mps 741 mmHg 89%
    21:00 -2°C° 0.1 mm 6 mps 741 mmHg 89%
    22:00 -2°C° 0.3 mm 6 mps 740 mmHg 89%
    23:00 -2°C° 0.3 mm 6 mps 740 mmHg 88%
    Show more